Simultaneous Nadir Overpasses (SNOs) Predictions

Prediction of SNOs between METOP-B and TERRA Satellite Orbit:

Table of predicted SNOs for the next 14.0 days since TLE Epoch: 4/2/2022
Index Date (METOP-B) Time (METOP-B) Lat,Lon (METOP-B) SZA (METOP-B ) Date (TERRA) Time (TERRA) Lat,Lon (TERRA) SZA (TERRA ) Distance(km) Time Diff (sec)
1 04/02/2022 04:34:43 81.20, 153.57 78.48 04/02/2022 04:34:29 81.20, 153.51 78.47 1.14 14
2 04/04/2022 23:18:27 -81.18, 51.93 102.65 04/04/2022 23:19:15 -81.18, 51.96 102.63 0.72 48
3 04/05/2022 00:09:06 81.20,-140.09 77.43 04/05/2022 00:08:40 81.20,-139.97 77.43 2.11 26
4 04/07/2022 18:52:49 -81.19, 118.60 103.65 04/07/2022 18:53:26 -81.19, 118.58 103.64 0.42 37
5 04/07/2022 19:43:28 81.21, -73.42 76.42 04/07/2022 19:42:51 81.22, -73.37 76.42 1.32 37
6 04/10/2022 14:27:11 -81.18,-175.17 104.69 04/10/2022 14:27:37 -81.18,-175.10 104.68 1.33 26
7 04/10/2022 15:17:50 81.20, -7.21 75.38 04/10/2022 15:17:02 81.21, -7.07 75.37 2.48 48
8 04/13/2022 10:01:33 -81.19,-108.63 105.68 04/13/2022 10:01:49 -81.18,-108.70 105.69 1.48 16



Historial Predications of SNOs between METOP-B and TERRA
